This is the latest recevied weather packets stored in our database for station/object KA3RQR. If no packets are shown the sender has not sent any weather packets the latest 10 day(s).
| Time | Temp. | Humidity | Pressure | Rain* | Wind** | Luminosity | Snow |
|---|---|---|---|---|---|---|---|
| 1777757703 | 13.89° C | 44% | 1012.1 hPa | 0 mm | - | 144 W/m² | - |
| 1777757401 | 14.44° C | 44% | 1011.9 hPa | 0 mm | - | 90 W/m² | - |
| 1777757099 | 14.44° C | 46% | 1012 hPa | 0 mm | - | 148 W/m² | - |
| 1777756796 | 15° C | 43% | 1012 hPa | 0 mm | - | 108 W/m² | - |
| 1777756492 | 15° C | 43% | 1012.2 hPa | 0 mm | - | 149 W/m² | - |
| 1777756190 | 15.56° C | 43% | 1012.2 hPa | 0 mm | - | 119 W/m² | - |
| 1777755886 | 14.44° C | 46% | 1012.1 hPa | 0 mm | - | 428 W/m² | - |
| 1777754977 | 16.67° C | 40% | 1012.1 hPa | 0 mm | - | 127 W/m² | - |
| 1777754372 | 16.67° C | 40% | 1012.1 hPa | 0 mm | - | 533 W/m² | - |
| 1777754069 | 16.11° C | 44% | 1012.2 hPa | 0 mm | - | 592 W/m² | - |
| 1777753764 | 15.56° C | 40% | 1011.7 hPa | 0 mm | - | 600 W/m² | - |
| 1777753462 | 15° C | 44% | 1011.8 hPa | 0 mm | - | 445 W/m² | - |
| 1777753160 | 15° C | 44% | 1011.9 hPa | 0 mm | - | 408 W/m² | - |
| 1777752855 | 15° C | 45% | 1011.8 hPa | 0 mm | - | 434 W/m² | - |
| 1777752553 | 15° C | 41% | 1011.8 hPa | 0 mm | - | 140 W/m² | - |
| 1777752248 | 15.56° C | 40% | 1011.9 hPa | 0 mm | - | 450 W/m² | - |
| 1777751946 | 15° C | 40% | 1011.9 hPa | 0 mm | - | 238 W/m² | - |
| 1777750732 | 15.56° C | 42% | 1012.3 hPa | 0 mm | - | 506 W/m² | - |
| 1777750124 | 15.56° C | 42% | 1012.4 hPa | 0 mm | - | 260 W/m² | - |
| 1777749519 | 16.11° C | 42% | 1012.4 hPa | 0 mm | - | 138 W/m² | - |
| 1777748914 | 13.89° C | 43% | 1012.6 hPa | 0 mm | - | 139 W/m² | - |
| 1777748307 | 15.56° C | 44% | 1012.8 hPa | 0 mm | - | 158 W/m² | - |
| 1777746484 | 14.44° C | 46% | 1013.3 hPa | 0 mm | - | 185 W/m² | - |
| 1777744664 | 13.89° C | 46% | 1013.7 hPa | 0 mm | - | 212 W/m² | - |
| 1777744056 | 13.89° C | 46% | 1014 hPa | 0 mm | - | 239 W/m² | - |
* Rain latest hour (hover to see other rain measurements)
** Current wind speed in m/s (hover to see current wind gust speed)